User: anonymous   Login
Location: Melbourne
(37.8170°S, 144.9670°E)
Time: 21:30:53
(UTC+10:00)
Language:

Cosmos 962 Rocket - Orbit

View from above orbital plane
View from above orbital plane
View from above satellite
View from above satellite

Ground track
Ground track

The orbit data is extracted from the following two-line orbital elements,

1 10461U 77107B   16208.55051922  .00000075  00000-0  60689-4 0  9995
2 10461  82.9473 255.1412 0032756 341.9514 125.3086 13.76762927945965
Epoch (UTC): 26 July 2016 13:12:44
Eccentricity: 0.0032756
inclination: 82.9473°
perigee height: 951 km
apogee height: 999 km
right ascension of ascending node: 255.1412°
argument of perigee: 341.9514°
revolutions per day: 13.76762927
mean anomaly at epoch: 125.3086°
orbit number at epoch: 94596

The dashed part of the orbit path shows where the satellite is in the earth's shadow,  

DLR